| time (UTC) | temp F | wind direction | speed knots | gust knots | rain 1hr in | rain 24hr in | rain mn in | humidity % | barometer mb |
| 20260505160437 | 50 | 167 | 1.7 | 4.3 | 0.00 | 0.00 | 0.00 | 78 | 1005.9 |
| 20260505152435 | 51 | 309 | 1.7 | 4.3 | 0.00 | 0.00 | 0.00 | 72 | 1006.0 |
| 20260505151436 | 52 | 340 | 1.7 | 4.3 | 0.00 | 0.00 | 0.00 | 71 | 1005.6 |
| 20260505150430 | 52 | 333 | 1.7 | 4.3 | 0.00 | 0.00 | 0.00 | 72 | 1005.6 |
| 20260505140429 | 53 | 317 | 1.7 | 4.3 | 0.00 | 0.00 | 0.00 | 72 | 1005.0 |
| 20260505124421 | 53 | 87 | 1.7 | 6.1 | 0.00 | 0.00 | 0.00 | 75 | 1003.1 |
| 20260505123423 | 53 | 336 | 1.7 | 6.1 | 0.00 | 0.00 | 0.00 | 76 | 1003.2 |
| 20260505122422 | 53 | 333 | 1.7 | 7.8 | 0.00 | 0.00 | 0.00 | 78 | 1002.9 |
| 20260505121426 | 54 | 331 | 3.5 | 7.8 | 0.00 | 0.00 | 0.00 | 80 | 1002.8 |
| 20260505120417 | 55 | 320 | 1.7 | 7.8 | 0.00 | 0.00 | 0.00 | 79 | 1002.8 |
| 20260505115415 | 56 | 335 | 1.7 | 4.3 | 0.00 | 0.00 | 0.00 | 78 | 1002.4 |
| 20260505114418 | 56 | 241 | 1.7 | 7.8 | 0.00 | 0.00 | 0.00 | 78 | 1002.4 |
| 20260505113416 | 56 | 173 | 0.0 | 4.3 | 0.00 | 0.00 | 0.00 | 79 | 1002.0 |
| 20260505112413 | 56 | 188 | 0.0 | 3.5 | 0.00 | 0.00 | 0.00 | 80 | 1001.7 |
| 20260505111416 | 56 | 166 | 0.0 | 6.1 | 0.00 | 0.00 | 0.00 | 82 | 1001.4 |
| 20260505110412 | 56 | 124 | 0.0 | 4.3 | 0.00 | 0.00 | 0.00 | 83 | 1001.2 |
| 20260505101406 | 56 | 200 | 0.0 | 4.3 | 0.00 | 0.00 | 0.00 | 84 | 1000.2 |
| 20260505100408 | 57 | 229 | 1.7 | 6.1 | 0.00 | 0.00 | 0.00 | 83 | 1000.1 |
| 20260505095406 | 57 | 216 | 1.7 | 7.8 | 0.00 | 0.00 | 0.00 | 83 | 1000.1 |
| 20260505094404 | 58 | 220 | 1.7 | 6.1 | 0.00 | 0.00 | 0.00 | 82 | 1000.0 |
| 20260505093401 | 58 | 263 | 1.7 | 15.6 | 0.00 | 0.00 | 0.00 | 82 | 1000.0 |
| 20260505092402 | 58 | 237 | 1.7 | 7.8 | 0.00 | 0.00 | 0.00 | 81 | 1000.1 |
| 20260505091401 | 58 | 217 | 1.7 | 6.1 | 0.00 | 0.00 | 0.00 | 79 | 999.9 |
| 20260505090359 | 59 | 238 | 3.5 | 10.4 | 0.00 | 0.00 | 0.00 | 78 | 999.8 |
| 20260505085359 | 59 | 222 | 3.5 | 13.9 | 0.00 | 0.00 | 0.00 | 77 | 999.8 |
| 20260505084359 | 60 | 251 | 1.7 | 10.4 | 0.00 | 0.00 | 0.00 | 75 | 999.7 |
| 20260505083358 | 60 | 178 | 1.7 | 7.8 | 0.00 | 0.00 | 0.00 | 75 | 999.4 |
| 20260505082358 | 60 | 265 | 1.7 | 15.6 | 0.00 | 0.00 | 0.00 | 74 | 999.3 |
| 20260505081356 | 60 | 234 | 1.7 | 10.4 | 0.00 | 0.00 | 0.00 | 73 | 999.4 |
| 20260505080358 | 60 | 212 | 1.7 | 4.3 | 0.00 | 0.00 | 0.00 | 73 | 999.4 |
| 20260505075359 | 60 | 153 | 1.7 | 10.4 | 0.00 | 0.00 | 0.00 | 73 | 999.2 |
| 20260505074356 | 60 | 137 | 1.7 | 6.1 | 0.00 | 0.00 | 0.00 | 73 | 999.0 |
| 20260505073355 | 60 | 219 | 1.7 | 9.6 | 0.00 | 0.00 | 0.00 | 73 | 998.7 |
| 20260505072357 | 60 | 241 | 1.7 | 7.8 | 0.00 | 0.00 | 0.00 | 74 | 998.5 |
| 20260505071354 | 60 | 201 | 0.0 | 3.5 | 0.00 | 0.00 | 0.00 | 76 | 998.5 |
| 20260505070354 | 60 | 286 | 0.0 | 7.8 | 0.00 | 0.00 | 0.00 | 77 | 998.7 |
| 20260505065352 | 60 | 255 | 1.7 | 6.1 | 0.00 | 0.00 | 0.00 | 75 | 999.0 |
| 20260505064355 | 60 | 138 | 1.7 | 10.4 | 0.00 | 0.00 | 0.00 | 75 | 998.5 |
| 20260505063352 | 60 | 202 | 1.7 | 7.8 | 0.00 | 0.00 | 0.00 | 74 | 998.8 |
| 20260505062353 | 60 | 276 | 3.5 | 12.2 | 0.00 | 0.00 | 0.00 | 74 | 999.2 |
| 20260505061353 | 61 | 237 | 3.5 | 9.6 | 0.00 | 0.00 | 0.00 | 74 | 999.3 |
| 20260505060353 | 61 | 213 | 3.5 | 10.4 | 0.00 | 0.00 | 0.00 | 73 | 999.4 |
| 20260505055355 | 62 | 162 | 3.5 | 9.6 | 0.00 | 0.00 | 0.00 | 71 | 999.0 |
| 20260505054352 | 62 | 157 | 1.7 | 9.6 | 0.00 | 0.00 | 0.00 | 70 | 999.2 |
| 20260505053358 | 63 | 178 | 3.5 | 9.6 | 0.00 | 0.00 | 0.00 | 69 | 999.1 |
| 20260505052357 | 64 | 259 | 3.5 | 13.9 | 0.00 | 0.00 | 0.00 | 68 | 999.1 |
| 20260505051354 | 64 | 234 | 3.5 | 10.4 | 0.00 | 0.00 | 0.00 | 68 | 998.7 |
| 20260505050356 | 65 | 194 | 4.3 | 25.2 | 0.00 | 0.00 | 0.00 | 70 | 999.2 |
| 20260505041354 | 64 | 194 | 4.3 | 9.6 | 0.00 | 0.00 | 0.00 | 71 | 998.6 |
| 20260505040354 | 64 | 190 | 4.3 | 12.2 | 0.00 | 0.00 | 0.00 | 71 | 998.6 |
| 20260505035354 | 64 | 153 | 3.5 | 9.6 | 0.00 | 0.00 | 0.00 | 72 | 998.7 |
| 20260505034353 | 63 | 234 | 3.5 | 10.4 | 0.00 | 0.00 | 0.00 | 73 | 998.7 |
| 20260505033354 | 63 | 163 | 4.3 | 10.4 | 0.00 | 0.00 | 0.00 | 73 | 998.6 |
| 20260505032349 | 63 | 229 | 3.5 | 9.6 | 0.00 | 0.00 | 0.00 | 74 | 998.7 |
| 20260505031349 | 63 | 171 | 3.5 | 7.8 | 0.00 | 0.00 | 0.00 | 75 | 998.8 |
| 20260505030350 | 62 | 175 | 3.5 | 9.6 | 0.00 | 0.00 | 0.00 | 75 | 999.0 |
| 20260505025350 | 63 | 169 | 3.5 | 9.6 | 0.00 | 0.00 | 0.00 | 75 | 999.2 |
| 20260505024351 | 63 | 185 | 3.5 | 12.2 | 0.00 | 0.00 | 0.00 | 75 | 999.2 |
| 20260505023351 | 63 | 234 | 3.5 | 12.2 | 0.00 | 0.00 | 0.00 | 75 | 999.1 |
| 20260505022350 | 62 | 179 | 3.5 | 10.4 | 0.00 | 0.00 | 0.00 | 76 | 999.2 |
| 20260505021351 | 62 | 168 | 1.7 | 6.1 | 0.00 | 0.00 | 0.00 | 77 | 999.1 |
| 20260505020355 | 62 | 155 | 3.5 | 9.6 | 0.00 | 0.00 | 0.00 | 77 | 999.1 |
| 20260505015350 | 62 | 163 | 3.5 | 9.6 | 0.00 | 0.00 | 0.00 | 76 | 999.1 |
| 20260505014349 | 62 | 172 | 3.5 | 9.6 | 0.00 | 0.00 | 0.00 | 76 | 999.2 |
| 20260505013351 | 62 | 176 | 3.5 | 10.4 | 0.00 | 0.00 | 0.00 | 77 | 999.0 |
| 20260505012349 | 61 | 156 | 3.5 | 7.8 | 0.00 | 0.00 | 0.00 | 78 | 998.8 |
| 20260505011349 | 62 | 153 | 3.5 | 9.6 | 0.00 | 0.00 | 0.00 | 77 | 998.6 |
| 20260505010350 | 62 | 185 | 3.5 | 9.6 | 0.00 | 0.00 | 0.00 | 75 | 998.6 |
| 20260505005354 | 63 | 194 | 4.3 | 13.9 | 0.00 | 0.00 | 0.00 | 73 | 998.6 |
| 20260505004354 | 65 | 237 | 6.1 | 15.6 | 0.00 | 0.00 | 0.00 | 68 | 998.6 |
| 20260505003349 | 66 | 165 | 6.1 | 20.0 | 0.00 | 0.00 | 0.00 | 63 | 998.3 |
| 20260505002349 | 68 | 194 | 6.1 | 19.1 | 0.00 | 0.00 | 0.00 | 59 | 998.3 |
| 20260505001349 | 70 | 247 | 3.5 | 20.0 | 0.00 | 0.00 | 0.00 | 55 | 998.4 |
| 20260505000351 | 71 | 168 | 3.5 | 9.6 | 0.00 | 0.00 | 0.00 | 53 | 997.9 |
| 20260504235348 | 72 | 189 | 1.7 | 9.6 | 0.00 | 0.00 | 0.00 | 51 | 997.9 |
| 20260504234351 | 73 | 196 | 1.7 | 9.6 | 0.00 | 0.00 | 0.00 | 47 | 997.9 |
| 20260504233351 | 73 | 227 | 3.5 | 7.8 | 0.00 | 0.00 | 0.00 | 46 | 998.0 |
| 20260504232352 | 73 | 154 | 3.5 | 9.6 | 0.00 | 0.00 | 0.00 | 46 | 998.1 |
| 20260504231345 | 73 | 238 | 4.3 | 13.9 | 0.00 | 0.00 | 0.00 | 46 | 998.0 |
| 20260504230346 | 73 | 175 | 4.3 | 15.6 | 0.00 | 0.00 | 0.00 | 44 | 998.0 |
| 20260504225342 | 74 | 225 | 4.3 | 13.9 | 0.00 | 0.00 | 0.00 | 44 | 998.0 |
| 20260504224343 | 74 | 252 | 3.5 | 10.4 | 0.00 | 0.00 | 0.00 | 42 | 998.1 |
| 20260504223347 | 74 | 312 | 3.5 | 10.4 | 0.00 | 0.00 | 0.00 | 41 | 998.4 |
| 20260504222347 | 74 | 273 | 4.3 | 12.2 | 0.00 | 0.00 | 0.00 | 41 | 998.5 |
| 20260504221344 | 74 | 213 | 3.5 | 7.8 | 0.00 | 0.00 | 0.00 | 39 | 998.6 |
| 20260504220343 | 74 | 242 | 6.1 | 15.6 | 0.00 | 0.00 | 0.00 | 40 | 999.0 |
| 20260504215355 | 74 | 247 | 6.1 | 17.4 | 0.00 | 0.00 | 0.00 | 39 | 998.8 |
| 20260504214350 | 74 | 244 | 6.1 | 19.1 | 0.00 | 0.00 | 0.00 | 38 | 998.7 |
| 20260504213350 | 74 | 264 | 6.1 | 20.0 | 0.00 | 0.00 | 0.00 | 38 | 998.8 |
| 20260504212349 | 74 | 142 | 6.1 | 25.2 | 0.00 | 0.00 | 0.00 | 37 | 999.0 |
| 20260504211344 | 74 | 178 | 6.1 | 19.1 | 0.00 | 0.00 | 0.00 | 36 | 999.1 |
| 20260504210402 | 75 | 148 | 4.3 | 13.9 | 0.00 | 0.00 | 0.00 | 36 | 999.1 |
| 20260504205341 | 74 | 244 | 4.3 | 15.6 | 0.00 | 0.00 | 0.00 | 34 | 999.1 |
| 20260504204340 | 74 | 217 | 6.1 | 20.0 | 0.00 | 0.00 | 0.00 | 33 | 999.2 |
| 20260504203339 | 75 | 150 | 4.3 | 20.0 | 0.00 | 0.00 | 0.00 | 32 | 999.3 |
| 20260504202340 | 75 | 243 | 4.3 | 19.1 | 0.00 | 0.00 | 0.00 | 31 | 999.2 |
| 20260504201340 | 74 | 193 | 4.3 | 15.6 | 0.00 | 0.00 | 0.00 | 31 | 999.3 |
| 20260504200339 | 75 | 259 | 3.5 | 15.6 | 0.00 | 0.00 | 0.00 | 30 | 999.3 |
| 20260504195338 | 75 | 48 | 6.1 | 17.4 | 0.00 | 0.00 | 0.00 | 31 | 999.5 |
| 20260504194341 | 75 | 174 | 4.3 | 10.4 | 0.00 | 0.00 | 0.00 | 30 | 999.5 |
| 20260504193334 | 75 | 262 | 6.1 | 21.7 | 0.00 | 0.00 | 0.00 | 27 | 999.5 |
| 20260504192335 | 75 | 271 | 4.3 | 19.1 | 0.00 | 0.00 | 0.00 | 27 | 999.7 |
| 20260504191336 | 75 | 330 | 3.5 | 7.8 | 0.00 | 0.00 | 0.00 | 27 | 999.7 |
| 20260504190332 | 75 | 248 | 4.3 | 19.1 | 0.00 | 0.00 | 0.00 | 27 | 999.9 |
| 20260504185332 | 75 | 148 | 4.3 | 20.0 | 0.00 | 0.00 | 0.00 | 28 | 999.9 |
| 20260504184333 | 75 | 230 | 3.5 | 13.9 | 0.00 | 0.00 | 0.00 | 29 | 1000.1 |
| 20260504183332 | 75 | 253 | 4.3 | 15.6 | 0.00 | 0.00 | 0.00 | 30 | 1000.2 |
| 20260504182331 | 74 | 235 | 6.1 | 15.6 | 0.00 | 0.00 | 0.00 | 33 | 1000.1 |
| 20260504181330 | 74 | 257 | 6.1 | 19.1 | 0.00 | 0.00 | 0.00 | 33 | 1000.2 |
| 20260504180331 | 74 | 205 | 4.3 | 15.6 | 0.00 | 0.00 | 0.00 | 33 | 1000.5 |
| 20260504175332 | 73 | 269 | 4.3 | 17.4 | 0.00 | 0.00 | 0.00 | 34 | 1000.4 |
| 20260504174329 | 73 | 155 | 6.1 | 19.1 | 0.00 | 0.00 | 0.00 | 36 | 1000.7 |
| 20260504173332 | 73 | 190 | 4.3 | 15.6 | 0.00 | 0.00 | 0.00 | 37 | 1000.9 |
| 20260504172333 | 73 | 152 | 4.3 | 17.4 | 0.00 | 0.00 | 0.00 | 37 | 1000.9 |
| 20260504171332 | 72 | 254 | 4.3 | 13.9 | 0.00 | 0.00 | 0.00 | 36 | 1001.2 |
| 20260504170335 | 72 | 321 | 3.5 | 13.9 | 0.00 | 0.00 | 0.00 | 36 | 1001.3 |